Location: Unspecified
(0.0000°N, 0.0000°E)
Time: 14:48:09
(UTC+00:00)

Altair - Pass Details

Date: 14 March 2026
Orbit: 1502 x 1682 km, 47.2° (Epoch: 18 April)

Event Time Altitude Azimuth Distance (km) Brightness Sun altitude
Rises 20:23:22 0° 249° (WSW) 4,833 11.1 -33.5°
Reaches altitude 10° 20:27:24 10° 263° (W) 3,814 10.4 -34.5°
Maximum altitude 20:34:32 23° 311° (NW) 2,848 9.2 -36.3°
Drops below altitude 10° 20:41:33 10° 1° (N) 3,702 9.4 -38.1°
Enters shadow 20:42:29 - 5° (N) 3,915 9.5 -38.3°
